RYR74RD LEAL-EGPH

Flight info

Callsign RYR74RD
Flight time 2h 36m
Altitude 36000
Route MITOS DCT COMPI DCT DIKUT DCT ASDIR DCT OSLAP DCT USKAR DCT MOPAS DCT GIROM DCT GONUP DCT TUPAR DCT RALIX DCT IBSUS DCT AKIKI DCT GARMI UN867 VASUX DCT TNT UN57 POL UN601 RIBEL DCT ABEVI DCT INPIP
Aircraft B738/M-SDE3FGILRWY/SB1

Departure

Time 2026-05-05 20:44
Airport Alicante-Elche Miguel Hernández Airport (LEAL)

Arrival

Time 2026-05-05 23:20
Airport Edinburgh Airport (EGPH)
Time Latitude Longitude Altitude Speed Heading
2026-05-05 19:58 38.28528 -0.55278 88 ft 0 kts
2026-05-05 20:33 38.28514 -0.55281 88 ft 3 kts
2026-05-05 20:33 38.28494 -0.55283 87 ft 3 kts 359°
2026-05-05 20:33 38.28474 -0.55281 87 ft 3 kts 345°
2026-05-05 20:33 38.28456 -0.55272 89 ft 3 kts 315°
2026-05-05 20:34 38.28449 -0.55259 86 ft 1 kts 280°
2026-05-05 20:37 38.28450 -0.55269 87 ft 4 kts 280°
2026-05-05 20:37 38.28457 -0.55321 90 ft 8 kts 279°
2026-05-05 20:37 38.28466 -0.55385 92 ft 7 kts 280°
2026-05-05 20:38 38.28476 -0.55448 95 ft 7 kts 281°
2026-05-05 20:38 38.28484 -0.55508 98 ft 7 kts 279°
2026-05-05 20:38 38.28489 -0.55568 99 ft 7 kts 261°
2026-05-05 20:38 38.28442 -0.55604 97 ft 10 kts 191°
2026-05-05 20:39 38.28376 -0.55630 98 ft 10 kts 232°
2026-05-05 20:39 38.28381 -0.55713 100 ft 10 kts 279°
2026-05-05 20:39 38.28394 -0.55807 102 ft 13 kts 280°
2026-05-05 20:39 38.28412 -0.55940 105 ft 17 kts 280°
2026-05-05 20:40 38.28435 -0.56103 107 ft 21 kts 280°
2026-05-05 20:40 38.28463 -0.56304 108 ft 24 kts 279°
2026-05-05 20:40 38.28492 -0.56510 115 ft 23 kts 280°
2026-05-05 20:40 38.28519 -0.56707 117 ft 22 kts 281°
2026-05-05 20:41 38.28547 -0.56898 126 ft 22 kts 281°
2026-05-05 20:41 38.28574 -0.57083 136 ft 21 kts 279°
2026-05-05 20:41 38.28595 -0.57246 143 ft 15 kts 279°
2026-05-05 20:41 38.28611 -0.57367 148 ft 11 kts 276°
2026-05-05 20:42 38.28566 -0.57428 150 ft 10 kts 187°
2026-05-05 20:42 38.28496 -0.57442 151 ft 10 kts 189°
2026-05-05 20:42 38.28455 -0.57450 151 ft 5 kts 185°
2026-05-05 20:42 38.28443 -0.57427 150 ft 4 kts 104°
2026-05-05 20:43 38.28431 -0.57343 146 ft 24 kts 100°
2026-05-05 20:43 38.28356 -0.56808 124 ft 97 kts 100°
2026-05-05 20:43 38.28199 -0.55695 98 ft 156 kts 100°
2026-05-05 20:43 38.27986 -0.54188 356 ft 179 kts 101°
2026-05-05 20:44 38.27740 -0.52683 1268 ft 171 kts 101°
2026-05-05 20:44 38.27486 -0.51144 1787 ft 190 kts 102°
2026-05-05 20:44 38.27338 -0.49356 2039 ft 217 kts 78°
2026-05-05 20:44 38.27935 -0.47558 2468 ft 227 kts 58°
2026-05-05 20:45 38.29699 -0.44098 3619 ft 246 kts 55°
2026-05-05 20:45 38.30698 -0.42191 3957 ft 268 kts 55°
2026-05-05 20:45 38.31730 -0.40217 4630 ft 274 kts 55°
2026-05-05 20:46 38.32791 -0.38186 5409 ft 277 kts 55°
2026-05-05 20:46 38.33713 -0.36020 6187 ft 281 kts 66°
2026-05-05 20:46 38.34417 -0.33676 6914 ft 285 kts 68°
2026-05-05 20:46 38.35114 -0.31293 7611 ft 289 kts 68°
2026-05-05 20:47 38.35836 -0.28888 8317 ft 293 kts 68°
2026-05-05 20:47 38.36589 -0.26458 9021 ft 297 kts 66°
2026-05-05 20:47 38.37395 -0.24024 9727 ft 301 kts 66°
2026-05-05 20:47 38.38217 -0.21583 10265 ft 310 kts 66°
2026-05-05 20:48 38.39100 -0.18960 10422 ft 333 kts 66°
2026-05-05 20:48 38.40038 -0.16160 10599 ft 354 kts 66°
2026-05-05 20:48 38.41017 -0.13224 11012 ft 365 kts 66°
2026-05-05 20:48 38.42017 -0.10215 11577 ft 371 kts 66°
2026-05-05 20:49 38.43031 -0.07159 12186 ft 377 kts 65°
2026-05-05 20:49 38.44394 -0.04297 12724 ft 381 kts 44°
2026-05-05 20:49 38.46507 -0.02305 13365 ft 378 kts 21°
2026-05-05 20:49 38.48959 -0.01315 13968 ft 373 kts
2026-05-05 20:50 38.51542 -0.01175 14600 ft 372 kts 355°
2026-05-05 20:50 38.54141 -0.01174 15245 ft 376 kts 354°
2026-05-05 20:50 38.56770 -0.01197 15875 ft 380 kts 354°
2026-05-05 20:50 38.59430 -0.01219 16493 ft 384 kts 354°
2026-05-05 20:51 38.62118 -0.01230 17114 ft 389 kts 354°
2026-05-05 20:51 38.64839 -0.01230 17749 ft 393 kts 354°
2026-05-05 20:51 38.67601 -0.01224 18299 ft 401 kts 354°
2026-05-05 20:51 38.70396 -0.01210 18907 ft 402 kts 354°
2026-05-05 20:52 38.73163 -0.01191 19523 ft 403 kts 354°
2026-05-05 20:52 38.75975 -0.01171 20087 ft 406 kts 354°
2026-05-05 20:52 38.78813 -0.01153 20581 ft 411 kts 354°
2026-05-05 20:52 38.81684 -0.01135 21094 ft 414 kts 354°
2026-05-05 20:53 38.84569 -0.01116 21671 ft 415 kts 354°
2026-05-05 20:53 38.87466 -0.01095 22209 ft 418 kts 354°
2026-05-05 20:53 38.90384 -0.01076 22736 ft 422 kts 354°
2026-05-05 20:53 38.93336 -0.01058 23156 ft 427 kts 354°
2026-05-05 20:54 38.96278 -0.01040 23588 ft 430 kts 354°
2026-05-05 20:54 38.99282 -0.01020 24006 ft 433 kts 354°
2026-05-05 20:54 39.02297 -0.00999 24450 ft 434 kts 354°
2026-05-05 20:54 39.05325 -0.00978 24871 ft 436 kts 353°
2026-05-05 20:55 39.08366 -0.00958 25265 ft 439 kts 353°
2026-05-05 20:55 39.11426 -0.00938 25653 ft 441 kts 353°
2026-05-05 20:55 39.14506 -0.00918 26062 ft 444 kts 353°
2026-05-05 20:55 39.17601 -0.00897 26441 ft 446 kts 353°
2026-05-05 20:56 39.20714 -0.00877 26804 ft 449 kts 352°
2026-05-05 20:56 39.23798 -0.00856 27155 ft 451 kts 352°
2026-05-05 20:56 39.26950 -0.00834 27502 ft 454 kts 352°
2026-05-05 20:56 39.30113 -0.00813 27846 ft 456 kts 352°
2026-05-05 20:57 39.33298 -0.00779 28181 ft 460 kts 354°
2026-05-05 20:57 39.36519 -0.00355 28522 ft 473 kts
2026-05-05 20:57 39.39752 0.00698 28773 ft 483 kts
2026-05-05 20:57 39.42992 0.01924 29034 ft 487 kts
2026-05-05 20:58 39.46246 0.03197 29350 ft 490 kts
2026-05-05 20:58 39.49467 0.04454 29663 ft 491 kts
2026-05-05 20:58 39.52750 0.05714 29958 ft 493 kts
2026-05-05 20:58 39.56054 0.06961 30191 ft 495 kts
2026-05-05 20:59 39.59375 0.08199 30479 ft 497 kts
2026-05-05 20:59 39.62696 0.09432 30824 ft 496 kts
2026-05-05 20:59 39.66007 0.10661 31184 ft 495 kts
2026-05-05 20:59 39.69316 0.11889 31506 ft 494 kts
2026-05-05 21:00 39.72627 0.13118 31791 ft 495 kts
2026-05-05 21:00 39.75891 0.14332 32085 ft 495 kts
2026-05-05 21:00 39.79200 0.15565 32401 ft 495 kts
2026-05-05 21:00 39.82507 0.16800 32802 ft 493 kts
2026-05-05 21:01 39.85789 0.18029 33263 ft 489 kts
2026-05-05 21:01 39.89053 0.19250 33623 ft 488 kts
2026-05-05 21:01 39.92319 0.20471 33843 ft 489 kts
2026-05-05 21:01 39.95592 0.21695 34052 ft 490 kts
2026-05-05 21:02 39.98869 0.22924 34311 ft 489 kts
2026-05-05 21:02 40.02086 0.24133 34617 ft 487 kts
2026-05-05 21:02 40.05336 0.25354 34972 ft 485 kts
2026-05-05 21:02 40.08574 0.26570 35270 ft 484 kts
2026-05-05 21:03 40.11804 0.27783 35494 ft 483 kts
2026-05-05 21:03 40.15038 0.28999 35709 ft 483 kts
2026-05-05 21:03 40.18268 0.30214 35948 ft 483 kts
2026-05-05 21:03 40.21503 0.31433 35971 ft 486 kts
2026-05-05 21:04 40.28012 0.33890 35995 ft 487 kts
2026-05-05 21:04 40.34448 0.36330 35964 ft 482 kts
2026-05-05 21:05 40.40876 0.38773 35970 ft 480 kts
2026-05-05 21:05 40.47284 0.41211 35966 ft 479 kts
2026-05-05 21:06 40.53697 0.43655 35971 ft 480 kts
2026-05-05 21:06 40.60078 0.46093 35971 ft 482 kts
2026-05-05 21:07 40.66525 0.48562 35972 ft 483 kts
2026-05-05 21:07 40.72986 0.51042 35964 ft 484 kts
2026-05-05 21:08 40.79464 0.53534 35971 ft 485 kts
2026-05-05 21:08 40.85909 0.56017 35971 ft 487 kts
2026-05-05 21:09 40.92419 0.58531 36001 ft 488 kts
2026-05-05 21:09 40.98941 0.61055 35970 ft 488 kts
2026-05-05 21:10 41.05458 0.63584 35962 ft 488 kts
2026-05-05 21:10 41.11924 0.66095 35965 ft 487 kts
2026-05-05 21:11 41.18429 0.68627 35963 ft 487 kts
2026-05-05 21:11 41.24929 0.71161 35963 ft 486 kts
2026-05-05 21:12 41.31419 0.73696 35966 ft 486 kts
2026-05-05 21:12 41.37916 0.76240 35974 ft 487 kts 10°
2026-05-05 21:13 41.44368 0.78772 35960 ft 487 kts 10°
2026-05-05 21:13 41.50864 0.81327 35958 ft 487 kts 10°
2026-05-05 21:14 41.57355 0.83884 35982 ft 486 kts 10°
2026-05-05 21:14 41.63853 0.86450 35965 ft 487 kts 10°
2026-05-05 21:15 41.70348 0.89020 35957 ft 487 kts 10°
2026-05-05 21:15 41.76795 0.91577 35959 ft 486 kts 10°
2026-05-05 21:16 41.83289 0.94156 35976 ft 487 kts 11°
2026-05-05 21:16 41.89780 0.96742 35988 ft 487 kts 11°
2026-05-05 21:17 41.96266 0.99331 35988 ft 486 kts 11°
2026-05-05 21:17 42.02693 1.01902 36013 ft 485 kts 12°
2026-05-05 21:18 42.09155 1.04492 35998 ft 484 kts 12°
2026-05-05 21:18 42.15681 1.06321 35985 ft 474 kts 358°
2026-05-05 21:19 42.22180 1.05886 35967 ft 467 kts 349°
2026-05-05 21:19 42.28650 1.05071 35972 ft 468 kts 349°
2026-05-05 21:20 42.35102 1.04343 35967 ft 468 kts 350°
2026-05-05 21:20 42.41596 1.03646 36003 ft 468 kts 350°
2026-05-05 21:21 42.48102 1.02941 35989 ft 469 kts 350°
2026-05-05 21:21 42.54618 1.02230 35984 ft 470 kts 350°
2026-05-05 21:22 42.61096 1.01521 36011 ft 470 kts 350°
2026-05-05 21:22 42.67623 1.00806 36000 ft 471 kts 350°
2026-05-05 21:23 42.74161 1.00089 36004 ft 472 kts 351°
2026-05-05 21:23 42.80618 0.98874 36000 ft 465 kts 341°
2026-05-05 21:24 42.86862 0.96664 36000 ft 463 kts 340°
2026-05-05 21:24 42.93049 0.94409 35996 ft 463 kts 340°
2026-05-05 21:25 42.99286 0.92209 35997 ft 464 kts 340°
2026-05-05 21:25 43.05545 0.90039 36007 ft 465 kts 341°
2026-05-05 21:26 43.11811 0.87869 36009 ft 465 kts 341°
2026-05-05 21:26 43.18041 0.85704 36006 ft 465 kts 341°
2026-05-05 21:27 43.24318 0.83516 36017 ft 466 kts 341°
2026-05-05 21:27 43.30601 0.81321 36004 ft 466 kts 341°
2026-05-05 21:28 43.36893 0.79118 35992 ft 467 kts 341°
2026-05-05 21:28 43.43138 0.76928 36017 ft 466 kts 341°
2026-05-05 21:29 43.49392 0.74545 36000 ft 465 kts 338°
2026-05-05 21:29 43.55524 0.71740 35991 ft 464 kts 337°
2026-05-05 21:30 43.61627 0.68870 35985 ft 463 kts 337°
2026-05-05 21:30 43.67733 0.66039 35990 ft 463 kts 338°
2026-05-05 21:31 43.73801 0.63253 35983 ft 462 kts 338°
2026-05-05 21:31 43.79905 0.60456 35981 ft 462 kts 338°
2026-05-05 21:32 43.86002 0.57656 35991 ft 462 kts 338°
2026-05-05 21:32 43.92100 0.54848 35975 ft 461 kts 338°
2026-05-05 21:33 43.98189 0.52038 35973 ft 461 kts 338°
2026-05-05 21:33 44.04242 0.49237 35980 ft 462 kts 338°
2026-05-05 21:34 44.10341 0.46410 35968 ft 462 kts 338°
2026-05-05 21:34 44.16439 0.43577 35967 ft 462 kts 338°
2026-05-05 21:35 44.22541 0.40736 35973 ft 463 kts 338°
2026-05-05 21:35 44.28613 0.37902 35984 ft 463 kts 339°
2026-05-05 21:36 44.34729 0.35042 35967 ft 464 kts 339°
2026-05-05 21:36 44.40846 0.32176 35969 ft 463 kts 339°
2026-05-05 21:37 44.46957 0.29305 35966 ft 463 kts 339°
2026-05-05 21:37 44.53069 0.26428 35963 ft 463 kts 339°
2026-05-05 21:38 44.59130 0.23569 35967 ft 462 kts 339°
2026-05-05 21:38 44.65225 0.20687 35965 ft 462 kts 339°
2026-05-05 21:39 44.71309 0.17803 35966 ft 461 kts 339°
2026-05-05 21:39 44.77392 0.14914 35963 ft 461 kts 339°
2026-05-05 21:40 44.83430 0.12040 35964 ft 461 kts 339°
2026-05-05 21:40 44.89505 0.09142 35963 ft 461 kts 339°
2026-05-05 21:41 44.95583 0.06236 35963 ft 461 kts 339°
2026-05-05 21:41 45.01659 0.03324 35965 ft 461 kts 339°
2026-05-05 21:42 45.07696 0.00424 35964 ft 461 kts 339°
2026-05-05 21:42 45.13774 -0.02501 35965 ft 462 kts 339°
2026-05-05 21:43 45.19861 -0.05438 35966 ft 462 kts 339°
2026-05-05 21:43 45.25940 -0.08377 35955 ft 462 kts 339°
2026-05-05 21:44 45.31973 -0.11301 35953 ft 461 kts 339°
2026-05-05 21:44 45.38044 -0.14250 35951 ft 461 kts 339°
2026-05-05 21:45 45.44102 -0.17199 35945 ft 460 kts 340°
2026-05-05 21:45 45.50155 -0.20152 35943 ft 460 kts 340°
2026-05-05 21:46 45.56201 -0.23109 35940 ft 459 kts 339°
2026-05-05 21:46 45.62200 -0.26049 35942 ft 459 kts 340°
2026-05-05 21:47 45.68235 -0.29014 35938 ft 458 kts 340°
2026-05-05 21:47 45.74265 -0.31984 35935 ft 458 kts 340°
2026-05-05 21:48 45.80289 -0.34957 35934 ft 458 kts 340°
2026-05-05 21:48 45.86270 -0.37915 35925 ft 458 kts 340°
2026-05-05 21:49 45.92293 -0.40901 35927 ft 458 kts 340°
2026-05-05 21:49 45.98320 -0.43896 35924 ft 458 kts 340°
2026-05-05 21:50 46.04344 -0.46897 35917 ft 458 kts 340°
2026-05-05 21:50 46.10336 -0.49888 35910 ft 459 kts 340°
2026-05-05 21:51 46.16365 -0.52905 35913 ft 459 kts 340°
2026-05-05 21:51 46.22403 -0.55934 35904 ft 459 kts 340°
2026-05-05 21:52 46.31460 -0.60490 35904 ft 460 kts 340°
2026-05-05 21:53 46.37461 -0.63518 35900 ft 460 kts 340°
2026-05-05 21:53 46.43493 -0.66619 35894 ft 460 kts 336°
2026-05-05 21:54 46.49248 -0.70645 35904 ft 459 kts 332°
2026-05-05 21:54 46.54913 -0.74945 35897 ft 459 kts 332°
2026-05-05 21:55 46.60596 -0.79192 35907 ft 459 kts 332°
2026-05-05 21:55 46.66251 -0.83355 35911 ft 458 kts 333°
2026-05-05 21:56 46.71934 -0.87532 35898 ft 457 kts 333°
2026-05-05 21:56 46.77591 -0.91703 35906 ft 455 kts 333°
2026-05-05 21:57 46.83225 -0.95870 35903 ft 453 kts 333°
2026-05-05 21:57 46.88798 -1.00001 35913 ft 451 kts 333°
2026-05-05 21:58 46.94538 -1.03656 35911 ft 450 kts 344°
2026-05-05 21:58 47.00725 -1.04993 35922 ft 450 kts 355°
2026-05-05 21:59 47.06972 -1.05725 35918 ft 451 kts 355°
2026-05-05 21:59 47.13190 -1.06498 35919 ft 452 kts 355°
2026-05-05 22:00 47.19499 -1.07343 35987 ft 459 kts 354°
2026-05-05 22:00 47.22688 -1.07780 36124 ft 461 kts 354°
2026-05-05 22:00 47.25879 -1.08218 36401 ft 459 kts 354°
2026-05-05 22:00 47.29057 -1.08654 36631 ft 459 kts 354°
2026-05-05 22:01 47.32240 -1.09091 36806 ft 460 kts 354°
2026-05-05 22:01 47.35424 -1.09528 37012 ft 460 kts 354°
2026-05-05 22:01 47.38570 -1.09960 37177 ft 460 kts 354°
2026-05-05 22:01 47.41757 -1.10398 37439 ft 459 kts 354°
2026-05-05 22:02 47.44930 -1.10835 37670 ft 458 kts 353°
2026-05-05 22:02 47.48106 -1.11273 37803 ft 459 kts 354°
2026-05-05 22:02 47.51291 -1.11712 37903 ft 460 kts 353°
2026-05-05 22:03 47.57679 -1.12596 37925 ft 461 kts 354°
2026-05-05 22:03 47.64059 -1.13482 37923 ft 460 kts 354°
2026-05-05 22:04 47.70372 -1.14360 37922 ft 458 kts 354°
2026-05-05 22:04 47.76707 -1.15244 37930 ft 457 kts 353°
2026-05-05 22:05 47.83028 -1.16128 37935 ft 456 kts 354°
2026-05-05 22:05 47.89345 -1.17014 37934 ft 456 kts 354°
2026-05-05 22:06 47.95618 -1.17895 37934 ft 456 kts 354°
2026-05-05 22:06 48.01946 -1.18787 37938 ft 457 kts 354°
2026-05-05 22:07 48.08287 -1.19683 37946 ft 458 kts 354°
2026-05-05 22:07 48.14648 -1.20583 37945 ft 460 kts 354°
2026-05-05 22:08 48.20986 -1.21483 37936 ft 462 kts 354°
2026-05-05 22:08 48.27386 -1.22393 37946 ft 463 kts 354°
2026-05-05 22:09 48.33802 -1.23308 37945 ft 463 kts 354°
2026-05-05 22:09 48.40216 -1.24226 37944 ft 463 kts 354°
2026-05-05 22:10 48.46587 -1.25139 37943 ft 462 kts 354°
2026-05-05 22:10 48.52982 -1.26058 37943 ft 461 kts 354°
2026-05-05 22:11 48.59362 -1.26977 37943 ft 460 kts 354°
2026-05-05 22:11 48.65715 -1.27895 37944 ft 458 kts 354°
2026-05-05 22:12 48.72052 -1.28813 37944 ft 457 kts 354°
2026-05-05 22:12 48.78327 -1.29724 37945 ft 456 kts 354°
2026-05-05 22:13 48.84635 -1.30642 37948 ft 455 kts 354°
2026-05-05 22:13 48.90931 -1.31561 37953 ft 454 kts 354°
2026-05-05 22:14 48.97225 -1.32482 37942 ft 454 kts 354°
2026-05-05 22:14 49.03516 -1.33404 37949 ft 454 kts 354°
2026-05-05 22:15 49.09757 -1.34322 37940 ft 454 kts 354°
2026-05-05 22:15 49.16041 -1.35249 37955 ft 454 kts 354°
2026-05-05 22:16 49.22329 -1.36178 37949 ft 454 kts 354°
2026-05-05 22:16 49.28627 -1.37111 37954 ft 455 kts 354°
2026-05-05 22:17 49.34892 -1.38042 37955 ft 456 kts 354°
2026-05-05 22:17 49.41212 -1.38983 37959 ft 457 kts 354°
2026-05-05 22:18 49.47546 -1.39929 37963 ft 457 kts 354°
2026-05-05 22:18 49.53885 -1.40878 37965 ft 458 kts 354°
2026-05-05 22:19 49.60199 -1.41700 37962 ft 459 kts 360°
2026-05-05 22:19 49.66575 -1.41217 37965 ft 459 kts
2026-05-05 22:20 49.72952 -1.40501 37968 ft 459 kts
2026-05-05 22:20 49.78255 -1.39977 37963 ft 459 kts
2026-05-05 22:21 49.85674 -1.39316 37960 ft 459 kts
2026-05-05 22:21 49.92051 -1.38754 37962 ft 459 kts
2026-05-05 22:22 49.97345 -1.38282 37958 ft 459 kts
2026-05-05 22:22 50.03696 -1.37375 37954 ft 458 kts
2026-05-05 22:23 50.09986 -1.35727 37954 ft 458 kts
2026-05-05 22:23 50.17284 -1.33769 37956 ft 458 kts
2026-05-05 22:24 50.22508 -1.32440 37956 ft 457 kts
2026-05-05 22:24 50.28791 -1.30871 37959 ft 457 kts
2026-05-05 22:25 50.35076 -1.29299 37960 ft 457 kts
2026-05-05 22:25 50.41358 -1.27719 37958 ft 457 kts
2026-05-05 22:26 50.47641 -1.26134 37960 ft 457 kts
2026-05-05 22:26 50.53920 -1.25815 37972 ft 455 kts 354°
2026-05-05 22:27 50.60221 -1.26851 37966 ft 455 kts 353°
2026-05-05 22:27 50.66517 -1.27933 37964 ft 456 kts 353°
2026-05-05 22:28 50.72830 -1.28958 37964 ft 456 kts 353°
2026-05-05 22:28 50.79150 -1.29949 37966 ft 456 kts 353°
2026-05-05 22:29 50.85431 -1.30925 37966 ft 457 kts 353°
2026-05-05 22:29 50.91757 -1.31912 37971 ft 457 kts 353°
2026-05-05 22:30 50.98083 -1.32903 37968 ft 457 kts 353°
2026-05-05 22:30 51.04410 -1.33897 37966 ft 457 kts 353°
2026-05-05 22:31 51.10690 -1.34888 37968 ft 456 kts 353°
2026-05-05 22:31 51.17003 -1.35886 37967 ft 456 kts 353°
2026-05-05 22:32 51.23317 -1.36886 37967 ft 456 kts 353°
2026-05-05 22:32 51.29628 -1.37890 37970 ft 455 kts 353°
2026-05-05 22:33 51.35933 -1.38894 37983 ft 455 kts 353°
2026-05-05 22:33 51.42192 -1.39895 37981 ft 455 kts 353°
2026-05-05 22:34 51.48487 -1.40904 37989 ft 455 kts 353°
2026-05-05 22:34 51.54781 -1.41915 37993 ft 454 kts 353°
2026-05-05 22:35 51.61069 -1.42929 37992 ft 454 kts 353°
2026-05-05 22:35 51.67315 -1.43938 37998 ft 454 kts 353°
2026-05-05 22:36 51.73602 -1.44957 37993 ft 454 kts 353°
2026-05-05 22:36 51.79884 -1.45978 38003 ft 454 kts 353°
2026-05-05 22:37 51.86173 -1.47003 37993 ft 454 kts 353°
2026-05-05 22:37 51.92419 -1.48024 37987 ft 454 kts 353°
2026-05-05 22:38 51.98706 -1.49054 37985 ft 454 kts 353°
2026-05-05 22:38 52.04992 -1.50087 38023 ft 454 kts 353°
2026-05-05 22:39 52.11278 -1.51124 38026 ft 454 kts 352°
2026-05-05 22:39 52.17522 -1.52156 38022 ft 454 kts 352°
2026-05-05 22:40 52.23807 -1.53197 38021 ft 454 kts 352°
2026-05-05 22:40 52.30089 -1.54242 38034 ft 454 kts 352°
2026-05-05 22:41 52.36373 -1.55289 38038 ft 454 kts 352°
2026-05-05 22:41 52.42616 -1.56333 38043 ft 454 kts 352°
2026-05-05 22:42 52.48900 -1.57387 38044 ft 454 kts 352°
2026-05-05 22:42 52.55180 -1.58442 38053 ft 454 kts 352°
2026-05-05 22:43 52.61462 -1.59502 38023 ft 454 kts 352°
2026-05-05 22:43 52.67745 -1.60564 38027 ft 454 kts 352°
2026-05-05 22:44 52.74022 -1.61629 38039 ft 453 kts 352°
2026-05-05 22:44 52.80257 -1.62689 38051 ft 454 kts 352°
2026-05-05 22:45 52.86535 -1.63761 38045 ft 454 kts 352°
2026-05-05 22:45 52.92817 -1.64835 38045 ft 454 kts 352°
2026-05-05 22:46 52.99097 -1.65913 38046 ft 454 kts 352°
2026-05-05 22:46 53.05357 -1.67151 38043 ft 452 kts 346°
2026-05-05 22:47 53.11248 -1.70383 38055 ft 449 kts 336°
2026-05-05 22:47 53.17075 -1.74132 38056 ft 449 kts 336°
2026-05-05 22:48 53.22914 -1.77846 38058 ft 449 kts 337°
2026-05-05 22:48 53.28768 -1.81514 38066 ft 450 kts 337°
2026-05-05 22:49 53.34592 -1.85155 38059 ft 450 kts 337°
2026-05-05 22:49 53.40453 -1.88829 38071 ft 450 kts 337°
2026-05-05 22:50 53.46319 -1.92519 38064 ft 450 kts 337°
2026-05-05 22:50 53.52183 -1.96219 38061 ft 450 kts 337°
2026-05-05 22:51 53.58010 -1.99907 38064 ft 450 kts 337°
2026-05-05 22:51 53.63874 -2.03631 38064 ft 450 kts 337°
2026-05-05 22:52 53.69735 -2.07362 38068 ft 450 kts 337°
2026-05-05 22:52 53.75589 -2.11114 38065 ft 450 kts 336°
2026-05-05 22:53 53.81387 -2.15078 38069 ft 449 kts 335°
2026-05-05 22:53 53.87133 -2.19028 38063 ft 449 kts 335°
2026-05-05 22:54 53.92923 -2.22992 38072 ft 448 kts 335°
2026-05-05 22:54 53.98707 -2.26963 38082 ft 448 kts 335°
2026-05-05 22:55 54.04481 -2.30941 38074 ft 448 kts 335°
2026-05-05 22:55 54.10216 -2.34904 38074 ft 447 kts 335°
2026-05-05 22:56 54.15982 -2.38900 38074 ft 447 kts 335°
2026-05-05 22:56 54.21750 -2.42910 38038 ft 448 kts 335°
2026-05-05 22:56 54.24660 -2.44940 37528 ft 454 kts 335°
2026-05-05 22:57 54.27572 -2.46972 36982 ft 451 kts 335°
2026-05-05 22:57 54.30472 -2.48998 36426 ft 449 kts 335°
2026-05-05 22:57 54.33357 -2.51017 35822 ft 448 kts 335°
2026-05-05 22:57 54.36209 -2.53016 35176 ft 449 kts 335°
2026-05-05 22:58 54.39099 -2.55046 34542 ft 449 kts 335°
2026-05-05 22:58 54.41992 -2.57081 33906 ft 449 kts 335°
2026-05-05 22:58 54.44870 -2.59107 33402 ft 445 kts 335°
2026-05-05 22:58 54.47718 -2.61115 32908 ft 440 kts 335°
2026-05-05 22:59 54.50538 -2.63106 32423 ft 436 kts 335°
2026-05-05 22:59 54.53328 -2.65079 31965 ft 431 kts 335°
2026-05-05 22:59 54.56089 -2.67036 31513 ft 427 kts 335°
2026-05-05 22:59 54.58822 -2.68976 31074 ft 423 kts 335°
2026-05-05 23:00 54.64179 -2.72787 30202 ft 416 kts 334°
2026-05-05 23:00 54.66838 -2.74682 29702 ft 412 kts 334°
2026-05-05 23:00 54.69472 -2.76561 29238 ft 407 kts 334°
2026-05-05 23:01 54.72070 -2.78417 28804 ft 402 kts 334°
2026-05-05 23:01 54.74645 -2.80260 28325 ft 398 kts 334°
2026-05-05 23:01 54.77190 -2.82084 27894 ft 394 kts 334°
2026-05-05 23:01 54.79709 -2.83892 27434 ft 390 kts 334°
2026-05-05 23:02 54.82171 -2.85661 27014 ft 386 kts 334°
2026-05-05 23:02 54.84640 -2.87438 26585 ft 383 kts 334°
2026-05-05 23:02 54.87092 -2.89204 26148 ft 380 kts 334°
2026-05-05 23:02 54.89532 -2.90965 25635 ft 380 kts 334°
2026-05-05 23:03 54.91972 -2.92729 25123 ft 381 kts 335°
2026-05-05 23:03 54.94419 -2.94499 24614 ft 381 kts 335°
2026-05-05 23:03 54.96867 -2.96272 24092 ft 381 kts 335°
2026-05-05 23:03 54.99314 -2.98047 23536 ft 381 kts 335°
2026-05-05 23:04 55.01759 -2.99822 22930 ft 380 kts 335°
2026-05-05 23:04 55.04162 -3.01569 22398 ft 378 kts 335°
2026-05-05 23:04 55.06562 -3.03405 21917 ft 374 kts 332°
2026-05-05 23:04 55.08871 -3.05432 21421 ft 370 kts 330°
2026-05-05 23:05 55.11143 -3.07505 20927 ft 367 kts 330°
2026-05-05 23:05 55.13398 -3.09579 20471 ft 364 kts 329°
2026-05-05 23:05 55.15629 -3.11642 19957 ft 363 kts 329°
2026-05-05 23:05 55.17854 -3.13707 19423 ft 362 kts 329°
2026-05-05 23:06 55.20082 -3.15780 18843 ft 363 kts 329°
2026-05-05 23:06 55.22293 -3.17841 18300 ft 357 kts 329°
2026-05-05 23:06 55.24431 -3.19835 17767 ft 349 kts 329°
2026-05-05 23:06 55.26546 -3.21815 17250 ft 341 kts 329°
2026-05-05 23:07 55.28606 -3.23750 16778 ft 332 kts 329°
2026-05-05 23:07 55.30620 -3.25649 16322 ft 326 kts 329°
2026-05-05 23:07 55.32603 -3.27527 15886 ft 322 kts 329°
2026-05-05 23:07 55.34564 -3.29395 15435 ft 321 kts 329°
2026-05-05 23:08 55.36536 -3.31285 14995 ft 325 kts 329°
2026-05-05 23:08 55.38523 -3.33204 14540 ft 326 kts 329°
2026-05-05 23:08 55.40510 -3.35139 14082 ft 326 kts 329°
2026-05-05 23:08 55.42483 -3.37074 13598 ft 324 kts 329°
2026-05-05 23:09 55.44448 -3.39016 13113 ft 323 kts 329°
2026-05-05 23:09 55.46356 -3.40913 12656 ft 315 kts 329°
2026-05-05 23:09 55.48236 -3.42795 12236 ft 308 kts 329°
2026-05-05 23:09 55.50089 -3.44663 11801 ft 306 kts 329°
2026-05-05 23:10 55.51935 -3.46537 11373 ft 306 kts 329°
2026-05-05 23:10 55.53772 -3.48418 10956 ft 305 kts 329°
2026-05-05 23:10 55.55602 -3.50305 10530 ft 304 kts 329°
2026-05-05 23:10 55.57424 -3.52196 10116 ft 303 kts 329°
2026-05-05 23:11 55.59211 -3.54066 10041 ft 291 kts 329°
2026-05-05 23:11 55.60889 -3.55831 9990 ft 277 kts 329°
2026-05-05 23:11 55.62516 -3.57547 9647 ft 270 kts 329°
2026-05-05 23:11 55.64125 -3.59246 9155 ft 269 kts 329°
2026-05-05 23:12 55.65729 -3.60941 8669 ft 268 kts 329°
2026-05-05 23:12 55.67319 -3.62645 8235 ft 266 kts 325°
2026-05-05 23:12 55.68607 -3.64969 7799 ft 265 kts 307°
2026-05-05 23:12 55.69655 -3.67646 7394 ft 263 kts 304°
2026-05-05 23:13 55.70857 -3.70042 6997 ft 260 kts 327°
2026-05-05 23:13 55.72514 -3.71108 6750 ft 253 kts 355°
2026-05-05 23:13 55.74247 -3.70893 6519 ft 247 kts
2026-05-05 23:13 55.75906 -3.70428 6241 ft 242 kts
2026-05-05 23:14 55.77553 -3.69948 5963 ft 238 kts
2026-05-05 23:14 55.79180 -3.69482 5639 ft 234 kts
2026-05-05 23:14 55.80762 -3.69053 5316 ft 227 kts
2026-05-05 23:14 55.82304 -3.68673 4938 ft 222 kts
2026-05-05 23:15 55.83813 -3.68254 4476 ft 218 kts 19°
2026-05-05 23:15 55.84989 -3.66693 3991 ft 213 kts 58°
2026-05-05 23:15 55.85751 -3.64476 3622 ft 207 kts 57°
2026-05-05 23:15 55.86520 -3.62400 3320 ft 194 kts 59°
2026-05-05 23:16 55.87189 -3.60469 3067 ft 179 kts 60°
2026-05-05 23:16 55.87811 -3.58627 2819 ft 168 kts 61°
2026-05-05 23:16 55.88390 -3.56900 2599 ft 157 kts 61°
2026-05-05 23:16 55.88927 -3.55298 2415 ft 143 kts 62°
2026-05-05 23:17 55.89426 -3.53814 2196 ft 138 kts 62°
2026-05-05 23:17 55.89915 -3.52355 1998 ft 136 kts 62°
2026-05-05 23:17 55.90400 -3.50911 1813 ft 137 kts 62°
2026-05-05 23:17 55.90890 -3.49453 1619 ft 138 kts 62°
2026-05-05 23:18 55.91381 -3.47994 1430 ft 137 kts 61°
2026-05-05 23:18 55.91862 -3.46549 1243 ft 138 kts 62°
2026-05-05 23:18 55.92355 -3.45067 1022 ft 140 kts 61°
2026-05-05 23:18 55.92860 -3.43561 822 ft 143 kts 60°
2026-05-05 23:19 55.93376 -3.42031 619 ft 145 kts 61°
2026-05-05 23:19 55.93901 -3.40494 398 ft 144 kts 60°
2026-05-05 23:19 55.94411 -3.38981 198 ft 139 kts 60°
2026-05-05 23:19 55.94881 -3.37600 111 ft 107 kts 59°
2026-05-05 23:20 55.95159 -3.36777 112 ft 52 kts 59°
2026-05-05 23:20 55.95249 -3.36512 109 ft 16 kts 59°
2026-05-05 23:20 55.95263 -3.36448 109 ft 4 kts 98°
2026-05-05 23:20 55.95242 -3.36408 111 ft 5 kts 144°
2026-05-05 23:21 55.95216 -3.36377 113 ft 5 kts 148°
2026-05-05 23:21 55.95175 -3.36332 114 ft 11 kts 148°
2026-05-05 23:21 55.95127 -3.36182 111 ft 18 kts 108°
2026-05-05 23:21 55.95093 -3.35999 113 ft 13 kts 111°
2026-05-05 23:22 55.95055 -3.35870 115 ft 10 kts 118°
2026-05-05 23:22 55.95022 -3.35827 115 ft 4 kts 184°
2026-05-05 23:22 55.95002 -3.35866 113 ft 6 kts 251°
2026-05-05 23:22 55.94982 -3.35968 112 ft 8 kts 250°
2026-05-05 23:23 55.94972 -3.36020 115 ft 3 kts 250°
2026-05-05 23:23 55.94969 -3.36031 115 ft 0 kts 250°